sat.trackr.live / text

‹ back to catalog

O3B FM20

NORAD 44112 · 2019-020A

PAYLOAD ACTIVE UNKNOWN

§ Identity

Operator
Country
O3B
Launch date
2019-04-04
Launch site
FRGUI
Launch vehicle
Mass (kg)
RCS (m²)

Purposes: comms

External: N2YO · Heavens-Above · Gunter

§ Orbital elements

Epoch: 2026-09-09T18:22:34.580064Z

Period
287.93 min
Inclination
0.0542°
Eccentricity
0.0002234
Mean motion
5.00115686 rev/d
Perigee alt
8,062.7 km
Apogee alt
8,069.1 km
Semi-major
14,444.0 km
B*
0.0000e+0
RAAN
353.2811°
Arg perigee
173.3550°
Mean anomaly
193.3687°
Rev number
13,580

§ Raw data

O3B FM201 44112U 19020A   26252.76567801 -.00000028  00000+0  00000+0 0  99902 44112   0.0542 353.2811 0002234 173.3550 193.3687  5.00115686135809

JSON: /api/v1/satellites/44112 · /tle

For live sub-satellite position, see the globe view (requires WebGL).

§ Visibility from observer

Set your observer location to see the next 7 days of passes ≥ 10°. The values pass through the URL so the page stays shareable.

No JS? Fill the form by hand. The geolocation button needs JavaScript.